QPF
0.02 0.01 0.01 0.02 0.01 0.01 0.01 0.01 0.01 0.01 0.02 0.02 0.01 0.02 0.02 0.02 0.01 0.01 0.01 0.02 0.03 0.04 0.02 0.01 0.01 0.01 0.01 0.02 0.03 0.04 0.03 0.03 0.02 0.01 0.01 0.01 0.02 0.02 0.02 0.02 0.02 0.01 0.02
0.03 0.02 0.01 0.01 0.01 0.01 0.01 0.01 0.02 0.02 0.02 0.02 0.01 0.01 0.02 0.02 0.01 0.02 0.01 0.03 0.04 0.03 0.02 0.03 0.02 0.02 0.02 0.02 0.03 0.04 0.04 0.03 0.03 0.01 0.01 0.01 0.02 0.02 0.02 0.02 0.02 0.02 0.02
0.03 0.02 0.02 0.02 0.03 0.03 0.02 0.02 0.03 0.02 0.02 0.02 0.02 0.02 0.01 0.02 0.02 0.01 0.01 0.02 0.03 0.03 0.03 0.03 0.03 0.03 0.03 0.03 0.03 0.03 0.03 0.03 0.02 0.01 0.01 0.01 0.01 0.02 0.01 0.01 0.02 0.01 0.01
0.05 0.02 0.03 0.03 0.04 0.05 0.04 0.05 0.05 0.03 0.02 0.03 0.02 0.02 0.02 0.02 0.01 0.02 0.02 0.03 0.03 0.02 0.03 0.05 0.04 0.04 0.05 0.04 0.05 0.05 0.05 0.04 0.03 0.02 0.01 0.01 0.01 0.01 0.01 0.01 0.02 0.02 0.01
0.05 0.04 0.03 0.03 0.03 0.03 0.03 0.03 0.03 0.02 0.03 0.04 0.03 0.02 0.02 0.03 0.03 0.03 0.03 0.03 0.02 0.02 0.03 0.05 0.05 0.05 0.04 0.05 0.06 0.07 0.07 0.06 0.05 0.04 0.03 0.03 0.02 0.02 0.02 0.01 0.02 0.02 0.01
0.06 0.06 0.04 0.03 0.03 0.02 0.02 0.03 0.03 0.03 0.04 0.05 0.05 0.03 0.02 0.03 0.03 0.02 0.02 0.02 0.02 0.02 0.03 0.05 0.05 0.04 0.04 0.05 0.06 0.07 0.08 0.08 0.07 0.06 0.06 0.05 0.04 0.04 0.04 0.03 0.03 0.02 0.02
0.09 0.07 0.04 0.03 0.04 0.03 0.02 0.02 0.03 0.04 0.04 0.05 0.06 0.05 0.04 0.03 0.03 0.02 0.02 0.02 0.03 0.03 0.02 0.02 0.03 0.03 0.02 0.04 0.05 0.06 0.07 0.09 0.09 0.08 0.07 0.05 0.05 0.05 0.04 0.04 0.04 0.03 0.03
0.08 0.07 0.04 0.04 0.04 0.04 0.04 0.03 0.03 0.04 0.04 0.05 0.06 0.06 0.04 0.03 0.03 0.02 0.02 0.02 0.03 0.03 0.03 0.02 0.02 0.02 0.03 0.02 0.03 0.05 0.08 0.09 0.09 0.10 0.09 0.07 0.07 0.05 0.04 0.04 0.04 0.04 0.04
0.08 0.07 0.05 0.04 0.03 0.03 0.03 0.04 0.05 0.04 0.03 0.04 0.05 0.05 0.03 0.02 0.02 0.02 0.02 0.02 0.03 0.03 0.03 0.03 0.03 0.03 0.04 0.03 0.03 0.04 0.05 0.06 0.08 0.10 0.08 0.07 0.05 0.04 0.03 0.04 0.04 0.05 0.05
0.08 0.07 0.07 0.05 0.04 0.04 0.05 0.05 0.05 0.05 0.04 0.03 0.05 0.05 0.04 0.02 0.02 0.01 0.01 0.01 0.02 0.03 0.04 0.05 0.05 0.07 0.06 0.06 0.07 0.07 0.05 0.05 0.07 0.08 0.08 0.08 0.07 0.05 0.04 0.06 0.07 0.07 0.07
0.08 0.07 0.06 0.05 0.05 0.07 0.06 0.06 0.06 0.05 0.04 0.03 0.03 0.04 0.06 0.05 0.04 0.03 0.01 0.01 0.01 0.02 0.03 0.04 0.04 0.07 0.07 0.09 0.10 0.07 0.06 0.05 0.05 0.06 0.07 0.09 0.08 0.08 0.08 0.08 0.08 0.08 0.08
0.08 0.09 0.08 0.07 0.06 0.06 0.06 0.05 0.06 0.06 0.05 0.04 0.03 0.03 0.06 0.06 0.06 0.05 0.03 0.03 0.02 0.02 0.03 0.04 0.06 0.08 0.09 0.07 0.06 0.05 0.05 0.07 0.07 0.05 0.05 0.06 0.08 0.09 0.09 0.08 0.09 0.10 0.09
0.07 0.08 0.09 0.08 0.06 0.05 0.06 0.07 0.06 0.04 0.04 0.04 0.04 0.05 0.05 0.04 0.05 0.05 0.05 0.05 0.04 0.05 0.05 0.05 0.05 0.05 0.05 0.06 0.06 0.07 0.06 0.09 0.09 0.08 0.07 0.06 0.06 0.07 0.08 0.09 0.09 0.09 0.08
0.07 0.07 0.06 0.06 0.06 0.05 0.05 0.06 0.06 0.07 0.07 0.06 0.07 0.07 0.07 0.07 0.06 0.05 0.04 0.04 0.03 0.03 0.03 0.03 0.03 0.04 0.04 0.05 0.06 0.07 0.06 0.09 0.10 0.10 0.09 0.09 0.09 0.09 0.08 0.07 0.07 0.07 0.06
0.06 0.05 0.04 0.04 0.05 0.04 0.04 0.04 0.04 0.06 0.07 0.06 0.06 0.05 0.05 0.05 0.05 0.04 0.04 0.04 0.04 0.02 0.02 0.02 0.02 0.03 0.04 0.06 0.08 0.08 0.08 0.10 0.11 0.11 0.12 0.12 0.11 0.11 0.10 0.10 0.09 0.08 0.06
0.03 0.05 0.04 0.03 0.04 0.04 0.04 0.04 0.05 0.06 0.09 0.09 0.09 0.07 0.05 0.04 0.05 0.06 0.06 0.05 0.05 0.03 0.02 0.01 0.02 0.02 0.03 0.03 0.05 0.04 0.05 0.07 0.07 0.08 0.10 0.11 0.11 0.10 0.10 0.10 0.10 0.10 0.10
0.02 0.02 0.04 0.04 0.05 0.05 0.05 0.06 0.07 0.07 0.07 0.08 0.09 0.08 0.06 0.07 0.07 0.06 0.05 0.04 0.04 0.03 0.02 0.01 0.01 0.01 0.02 0.02 0.03 0.03 0.04 0.04 0.04 0.05 0.05 0.06 0.08 0.09 0.10 0.11 0.11 0.11 0.11
0.01 0.02 0.02 0.03 0.04 0.04 0.05 0.05 0.05 0.04 0.04 0.04 0.06 0.07 0.06 0.07 0.06 0.05 0.04 0.04 0.04 0.04 0.03 0.02 0.02 0.03 0.03 0.03 0.03 0.04 0.04 0.03 0.03 0.04 0.04 0.05 0.07 0.08 0.09 0.09 0.11 0.14 0.16
0.02 0.02 0.02 0.02 0.03 0.04 0.04 0.04 0.04 0.04 0.04 0.04 0.05 0.05 0.05 0.06 0.07 0.07 0.06 0.05 0.05 0.05 0.04 0.03 0.03 0.04 0.04 0.04 0.05 0.04 0.03 0.03 0.03 0.03 0.03 0.04 0.05 0.08 0.11 0.15 0.17 0.18 0.16
0.03 0.02 0.03 0.03 0.04 0.04 0.05 0.05 0.05 0.05 0.04 0.03 0.03 0.04 0.06 0.08 0.10 0.09 0.09 0.08 0.08 0.08 0.08 0.07 0.06 0.06 0.06 0.06 0.05 0.05 0.05 0.04 0.04 0.04 0.05 0.05 0.05 0.06 0.06 0.07 0.08 0.09 0.09
0.04 0.03 0.04 0.04 0.05 0.05 0.04 0.04 0.04 0.04 0.04 0.03 0.03 0.05 0.06 0.09 0.11 0.11 0.11 0.09 0.08 0.08 0.08 0.08 0.08 0.07 0.07 0.06 0.05 0.05 0.06 0.06 0.07 0.06 0.05 0.05 0.05 0.06 0.07 0.07 0.08 0.07 0.07
0.06 0.06 0.06 0.05 0.05 0.04 0.05 0.06 0.06 0.05 0.04 0.04 0.04 0.04 0.04 0.04 0.06 0.07 0.07 0.06 0.05 0.04 0.04 0.04 0.05 0.04 0.03 0.02 0.03 0.03 0.04 0.04 0.05 0.05 0.05 0.06 0.06 0.06 0.06 0.06 0.07 0.06 0.06
0.05 0.06 0.05 0.04 0.04 0.04 0.05 0.06 0.07 0.06 0.05 0.05 0.04 0.03 0.02 0.02 0.02 0.03 0.03 0.02 0.02 0.02 0.02 0.02 0.02 0.01 0.01 0.01 0.01 0.02 0.02 0.02 0.02 0.03 0.03 0.04 0.05 0.05 0.06 0.05 0.05 0.05 0.05
0.04 0.05 0.05 0.04 0.03 0.04 0.05 0.04 0.06 0.07 0.07 0.06 0.04 0.02 0.02 0.02 0.03 0.03 0.02 0.01 0.01 0.01 0.01 0.01 0.01 0.01 0.01 0.01 0.02 0.02 0.02 0.02 0.03 0.03 0.03 0.04 0.04 0.04 0.05 0.05 0.06 0.05 0.05
0.02 0.02 0.02 0.02 0.02 0.03 0.05 0.07 0.09 0.09 0.06 0.04 0.03 0.03 0.03 0.03 0.03 0.02 0.01 0.00 0.00 0.01 0.02 0.02 0.01 0.01 0.02 0.02 0.02 0.03 0.04 0.04 0.04 0.04 0.03 0.04 0.05 0.07 0.07 0.08 0.07 0.06 0.05
0.02 0.01 0.01 0.02 0.03 0.04 0.05 0.06 0.05 0.03 0.02 0.02 0.02 0.01 0.01 0.01 0.01 0.01 0.00 0.01 0.01 0.01 0.02 0.02 0.02 0.02 0.02 0.02 0.03 0.03 0.04 0.04 0.04 0.04 0.04 0.04 0.05 0.07 0.08 0.07 0.06 0.05 0.05
MSLP
1018.50 1018.64 1018.69 1018.68 1018.66 1018.65 1018.69 1018.78 1018.91 1019.08 1019.26 1019.41 1019.54 1019.64 1019.71 1019.78 1019.86 1019.95 1020.07 1020.21 1020.36 1020.51 1020.64 1020.76 1020.87 1020.98 1021.11 1021.26 1021.42 1021.60 1021.78 1021.95 1022.10 1022.21 1022.30 1022.38 1022.45 1022.53 1022.61 1022.71 1022.80 1022.88 1022.94
1018.52 1018.65 1018.71 1018.72 1018.72 1018.74 1018.79 1018.90 1019.06 1019.25 1019.46 1019.64 1019.79 1019.91 1019.98 1020.04 1020.08 1020.13 1020.19 1020.28 1020.38 1020.49 1020.62 1020.74 1020.87 1021.01 1021.16 1021.31 1021.48 1021.64 1021.80 1021.94 1022.07 1022.18 1022.28 1022.36 1022.45 1022.54 1022.64 1022.73 1022.81 1022.88 1022.94
1018.42 1018.56 1018.65 1018.70 1018.75 1018.81 1018.90 1019.05 1019.24 1019.46 1019.68 1019.89 1020.07 1020.19 1020.27 1020.30 1020.31 1020.30 1020.31 1020.32 1020.37 1020.44 1020.54 1020.66 1020.80 1020.96 1021.13 1021.29 1021.46 1021.62 1021.76 1021.90 1022.01 1022.12 1022.21 1022.31 1022.42 1022.52 1022.63 1022.72 1022.81 1022.88 1022.93
1018.29 1018.44 1018.57 1018.68 1018.78 1018.90 1019.04 1019.22 1019.43 1019.67 1019.91 1020.13 1020.32 1020.45 1020.53 1020.55 1020.52 1020.47 1020.40 1020.35 1020.33 1020.34 1020.41 1020.51 1020.65 1020.82 1021.00 1021.19 1021.37 1021.52 1021.66 1021.78 1021.89 1021.99 1022.10 1022.21 1022.33 1022.45 1022.56 1022.67 1022.76 1022.83 1022.88
1018.18 1018.36 1018.54 1018.70 1018.87 1019.04 1019.21 1019.41 1019.63 1019.86 1020.09 1020.32 1020.51 1020.65 1020.73 1020.74 1020.69 1020.60 1020.49 1020.37 1020.28 1020.24 1020.25 1020.33 1020.45 1020.62 1020.81 1021.00 1021.18 1021.34 1021.48 1021.59 1021.70 1021.80 1021.91 1022.03 1022.16 1022.29 1022.42 1022.54 1022.63 1022.70 1022.74
1018.16 1018.36 1018.58 1018.80 1019.01 1019.21 1019.40 1019.59 1019.79 1019.99 1020.20 1020.41 1020.59 1020.74 1020.83 1020.86 1020.82 1020.71 1020.56 1020.40 1020.26 1020.16 1020.12 1020.15 1020.24 1020.39 1020.57 1020.76 1020.94 1021.09 1021.22 1021.33 1021.43 1021.53 1021.64 1021.77 1021.91 1022.06 1022.19 1022.31 1022.40 1022.46 1022.50
1018.20 1018.43 1018.68 1018.94 1019.18 1019.39 1019.57 1019.73 1019.88 1020.04 1020.21 1020.39 1020.57 1020.74 1020.86 1020.91 1020.90 1020.81 1020.66 1020.47 1020.29 1020.14 1020.05 1020.03 1020.08 1020.19 1020.35 1020.51 1020.67 1020.81 1020.93 1021.02 1021.11 1021.20 1021.31 1021.44 1021.59 1021.74 1021.88 1022.00 1022.08 1022.12 1022.13
1018.28 1018.53 1018.81 1019.08 1019.33 1019.53 1019.69 1019.80 1019.90 1020.00 1020.12 1020.28 1020.46 1020.64 1020.81 1020.92 1020.96 1020.91 1020.78 1020.61 1020.41 1020.22 1020.08 1020.01 1020.01 1020.08 1020.19 1020.32 1020.45 1020.56 1020.65 1020.72 1020.79 1020.87 1020.97 1021.10 1021.24 1021.39 1021.53 1021.63 1021.69 1021.71 1021.68
1018.34 1018.60 1018.90 1019.18 1019.43 1019.62 1019.73 1019.79 1019.83 1019.87 1019.96 1020.09 1020.28 1020.50 1020.73 1020.91 1021.02 1021.04 1020.96 1020.81 1020.61 1020.41 1020.24 1020.13 1020.08 1020.10 1020.16 1020.25 1020.33 1020.40 1020.45 1020.49 1020.54 1020.59 1020.68 1020.79 1020.93 1021.07 1021.20 1021.28 1021.31 1021.29 1021.21
1018.33 1018.60 1018.91 1019.20 1019.45 1019.61 1019.70 1019.72 1019.71 1019.71 1019.76 1019.89 1020.10 1020.36 1020.65 1020.91 1021.10 1021.19 1021.18 1021.07 1020.90 1020.71 1020.53 1020.39 1020.31 1020.29 1020.31 1020.35 1020.39 1020.41 1020.42 1020.42 1020.43 1020.46 1020.52 1020.62 1020.74 1020.87 1020.98 1021.04 1021.03 1020.96 1020.82
1018.21 1018.50 1018.82 1019.12 1019.37 1019.53 1019.60 1019.60 1019.57 1019.55 1019.60 1019.73 1019.96 1020.26 1020.60 1020.93 1021.20 1021.36 1021.42 1021.37 1021.24 1021.07 1020.90 1020.76 1020.67 1020.63 1020.63 1020.64 1020.64 1020.62 1020.59 1020.55 1020.52 1020.51 1020.55 1020.62 1020.73 1020.84 1020.93 1020.97 1020.93 1020.81 1020.62
1018.01 1018.31 1018.65 1018.97 1019.23 1019.40 1019.48 1019.49 1019.46 1019.44 1019.49 1019.64 1019.89 1020.22 1020.60 1020.97 1021.29 1021.52 1021.63 1021.63 1021.56 1021.44 1021.31 1021.20 1021.13 1021.11 1021.10 1021.10 1021.09 1021.05 1020.98 1020.91 1020.84 1020.80 1020.80 1020.85 1020.94 1021.04 1021.11 1021.13 1021.06 1020.90 1020.66
1017.76 1018.08 1018.43 1018.77 1019.06 1019.26 1019.37 1019.41 1019.41 1019.41 1019.48 1019.64 1019.90 1020.24 1020.64 1021.03 1021.37 1021.62 1021.77 1021.83 1021.80 1021.74 1021.68 1021.63 1021.62 1021.64 1021.68 1021.70 1021.70 1021.65 1021.57 1021.47 1021.37 1021.31 1021.29 1021.31 1021.38 1021.46 1021.53 1021.53 1021.44 1021.26 1021.00
1017.54 1017.86 1018.23 1018.60 1018.92 1019.16 1019.31 1019.39 1019.43 1019.48 1019.57 1019.74 1020.00 1020.33 1020.71 1021.08 1021.41 1021.66 1021.83 1021.91 1021.94 1021.95 1021.96 1022.00 1022.07 1022.18 1022.28 1022.36 1022.40 1022.38 1022.30 1022.20 1022.09 1022.00 1021.96 1021.97 1022.02 1022.10 1022.15 1022.15 1022.06 1021.88 1021.60
1017.40 1017.73 1018.10 1018.48 1018.83 1019.11 1019.31 1019.45 1019.54 1019.63 1019.75 1019.93 1020.18 1020.48 1020.81 1021.14 1021.42 1021.64 1021.79 1021.89 1021.96 1022.02 1022.12 1022.26 1022.44 1022.65 1022.85 1023.01 1023.12 1023.14 1023.10 1023.01 1022.90 1022.81 1022.75 1022.75 1022.80 1022.87 1022.93 1022.93 1022.86 1022.69 1022.42
1017.39 1017.70 1018.06 1018.45 1018.82 1019.14 1019.39 1019.58 1019.73 1019.86 1020.01 1020.20 1020.43 1020.69 1020.96 1021.21 1021.43 1021.59 1021.70 1021.79 1021.88 1022.00 1022.17 1022.41 1022.70 1023.02 1023.33 1023.59 1023.78 1023.88 1023.89 1023.83 1023.73 1023.65 1023.59 1023.59 1023.64 1023.71 1023.77 1023.80 1023.74 1023.60 1023.37
1017.52 1017.80 1018.15 1018.53 1018.90 1019.24 1019.53 1019.77 1019.97 1020.15 1020.33 1020.53 1020.74 1020.96 1021.17 1021.34 1021.48 1021.57 1021.63 1021.68 1021.77 1021.92 1022.15 1022.46 1022.85 1023.27 1023.69 1024.06 1024.34 1024.51 1024.58 1024.57 1024.51 1024.44 1024.40 1024.40 1024.45 1024.53 1024.61 1024.65 1024.63 1024.53 1024.34
1017.76 1018.02 1018.34 1018.70 1019.07 1019.42 1019.74 1020.02 1020.26 1020.49 1020.70 1020.91 1021.11 1021.30 1021.45 1021.56 1021.62 1021.64 1021.63 1021.65 1021.72 1021.87 1022.13 1022.49 1022.95 1023.45 1023.95 1024.40 1024.77 1025.02 1025.16 1025.20 1025.18 1025.13 1025.11 1025.12 1025.18 1025.26 1025.36 1025.43 1025.44 1025.39 1025.26
1018.10 1018.33 1018.63 1018.96 1019.32 1019.67 1020.00 1020.31 1020.59 1020.85 1021.10 1021.34 1021.55 1021.72 1021.84 1021.90 1021.89 1021.85 1021.78 1021.75 1021.78 1021.91 1022.17 1022.55 1023.04 1023.58 1024.14 1024.66 1025.08 1025.39 1025.59 1025.68 1025.70 1025.69 1025.69 1025.71 1025.78 1025.87 1025.98 1026.08 1026.13 1026.12 1026.04
1018.50 1018.71 1018.99 1019.30 1019.64 1019.98 1020.31 1020.63 1020.94 1021.24 1021.53 1021.80 1022.02 1022.20 1022.31 1022.34 1022.31 1022.21 1022.10 1022.02 1022.00 1022.10 1022.33 1022.70 1023.18 1023.73 1024.30 1024.84 1025.31 1025.66 1025.90 1026.04 1026.09 1026.11 1026.13 1026.16 1026.24 1026.34 1026.46 1026.57 1026.65 1026.69 1026.66
1018.93 1019.15 1019.42 1019.71 1020.03 1020.35 1020.67 1021.00 1021.33 1021.65 1021.97 1022.27 1022.53 1022.73 1022.85 1022.88 1022.83 1022.71 1022.57 1022.45 1022.39 1022.44 1022.63 1022.95 1023.39 1023.92 1024.48 1025.01 1025.48 1025.86 1026.12 1026.28 1026.37 1026.41 1026.44 1026.49 1026.56 1026.67 1026.80 1026.92 1027.02 1027.08 1027.10
1019.41 1019.64 1019.91 1020.19 1020.49 1020.79 1021.10 1021.41 1021.74 1022.07 1022.41 1022.73 1023.02 1023.25 1023.40 1023.45 1023.41 1023.30 1023.14 1023.00 1022.91 1022.92 1023.05 1023.31 1023.70 1024.18 1024.69 1025.20 1025.65 1026.02 1026.29 1026.46 1026.56 1026.61 1026.65 1026.70 1026.78 1026.88 1027.01 1027.13 1027.24 1027.32 1027.37
1019.91 1020.18 1020.46 1020.74 1021.01 1021.29 1021.57 1021.86 1022.16 1022.49 1022.83 1023.17 1023.48 1023.74 1023.92 1024.00 1023.99 1023.89 1023.75 1023.60 1023.49 1023.46 1023.55 1023.76 1024.08 1024.50 1024.96 1025.41 1025.83 1026.17 1026.43 1026.60 1026.70 1026.76 1026.80 1026.84 1026.91 1027.00 1027.11 1027.23 1027.34 1027.42 1027.48
1020.42 1020.73 1021.04 1021.32 1021.58 1021.83 1022.07 1022.32 1022.59 1022.90 1023.22 1023.55 1023.87 1024.15 1024.35 1024.47 1024.49 1024.43 1024.31 1024.17 1024.07 1024.02 1024.08 1024.24 1024.51 1024.86 1025.26 1025.66 1026.03 1026.34 1026.57 1026.73 1026.82 1026.87 1026.90 1026.93 1026.98 1027.05 1027.14 1027.24 1027.34 1027.41 1027.46
1020.92 1021.28 1021.60 1021.89 1022.14 1022.36 1022.57 1022.78 1023.01 1023.27 1023.57 1023.88 1024.19 1024.46 1024.68 1024.82 1024.88 1024.86 1024.77 1024.67 1024.58 1024.54 1024.58 1024.71 1024.93 1025.23 1025.58 1025.92 1026.25 1026.52 1026.72 1026.85 1026.93 1026.96 1026.97 1026.99 1027.02 1027.07 1027.13 1027.20 1027.27 1027.33 1027.36
1021.36 1021.75 1022.11 1022.40 1022.65 1022.85 1023.03 1023.20 1023.39 1023.61 1023.86 1024.14 1024.43 1024.70 1024.92 1025.08 1025.16 1025.17 1025.13 1025.05 1024.99 1024.97 1025.01 1025.13 1025.32 1025.58 1025.88 1026.18 1026.46 1026.69 1026.86 1026.97 1027.02 1027.04 1027.04 1027.03 1027.04 1027.06 1027.10 1027.14 1027.18 1027.21 1027.21
Thickness
5735 5735 5735 5735 5735 5735 5735 5734 5734 5733 5733 5733 5732 5731 5730 5729 5728 5726 5726 5725 5724 5722 5721 5720 5718 5717 5715 5714 5712 5710 5709 5707 5706 5705 5704 5703 5702 5701 5700 5699 5699 5698 5697
5734 5734 5734 5734 5734 5734 5734 5733 5733 5732 5732 5732 5731 5730 5729 5729 5728 5726 5725 5724 5723 5722 5721 5720 5718 5717 5716 5714 5712 5711 5709 5707 5706 5705 5704 5703 5702 5701 5700 5699 5698 5697 5696
5735 5734 5733 5733 5734 5733 5733 5733 5732 5732 5731 5731 5730 5730 5729 5728 5727 5726 5725 5724 5723 5722 5721 5720 5719 5717 5716 5714 5713 5711 5709 5708 5707 5705 5704 5703 5702 5701 5700 5699 5698 5697 5696
5735 5734 5733 5733 5733 5733 5732 5732 5731 5730 5730 5730 5729 5729 5728 5727 5727 5726 5725 5724 5723 5722 5722 5721 5719 5718 5716 5715 5713 5712 5710 5709 5708 5706 5705 5704 5702 5701 5700 5699 5698 5697 5696
5735 5734 5734 5734 5733 5732 5732 5732 5731 5730 5729 5728 5728 5728 5727 5727 5726 5726 5725 5724 5723 5723 5722 5721 5719 5718 5717 5716 5714 5713 5712 5710 5709 5707 5706 5704 5703 5702 5700 5699 5698 5697 5696
5736 5734 5734 5734 5733 5732 5731 5731 5729 5729 5728 5728 5728 5727 5727 5727 5726 5726 5725 5725 5724 5723 5722 5721 5720 5719 5718 5717 5716 5714 5713 5711 5710 5709 5707 5705 5704 5703 5701 5700 5699 5697 5696
5736 5735 5734 5734 5733 5732 5731 5731 5730 5728 5727 5726 5724 5722 5724 5726 5726 5726 5725 5725 5724 5723 5722 5721 5720 5719 5718 5717 5716 5715 5714 5712 5711 5709 5708 5706 5705 5704 5702 5701 5699 5698 5696
5736 5735 5734 5734 5734 5733 5731 5731 5729 5727 5726 5726 5723 5718 5716 5719 5723 5726 5725 5724 5724 5723 5722 5722 5720 5719 5718 5717 5717 5716 5714 5713 5712 5711 5709 5707 5706 5705 5703 5702 5700 5699 5697
5737 5736 5735 5734 5734 5733 5732 5731 5730 5727 5724 5724 5724 5720 5714 5712 5716 5721 5723 5723 5723 5722 5722 5721 5720 5719 5718 5717 5716 5716 5715 5714 5713 5712 5710 5709 5707 5705 5704 5703 5701 5699 5698
5737 5736 5735 5735 5734 5734 5733 5732 5731 5729 5726 5723 5723 5722 5721 5719 5714 5713 5718 5720 5721 5720 5720 5720 5720 5719 5718 5717 5716 5716 5715 5714 5712 5711 5710 5709 5707 5706 5704 5703 5701 5700 5698
5737 5737 5736 5735 5735 5734 5733 5732 5731 5730 5728 5725 5723 5721 5719 5717 5716 5712 5710 5714 5716 5718 5719 5718 5718 5718 5717 5716 5715 5714 5714 5713 5712 5710 5709 5708 5707 5705 5703 5702 5701 5699 5697
5737 5737 5736 5735 5734 5734 5733 5732 5731 5730 5728 5726 5724 5723 5720 5717 5715 5712 5710 5710 5711 5715 5716 5716 5716 5715 5714 5714 5713 5713 5712 5711 5710 5708 5707 5706 5705 5703 5702 5700 5699 5697 5696
5736 5736 5736 5735 5734 5734 5733 5732 5730 5729 5728 5726 5724 5722 5721 5719 5718 5715 5711 5709 5708 5710 5712 5712 5712 5712 5711 5710 5709 5709 5709 5708 5707 5706 5704 5703 5701 5700 5698 5696 5695 5693 5692
5735 5736 5735 5735 5734 5733 5732 5731 5729 5728 5726 5724 5723 5721 5719 5718 5717 5715 5712 5708 5705 5704 5705 5706 5708 5707 5707 5706 5705 5705 5704 5704 5703 5702 5700 5698 5697 5695 5693 5691 5689 5688 5686
5735 5734 5733 5733 5732 5731 5731 5729 5727 5726 5724 5722 5721 5719 5717 5716 5716 5714 5712 5710 5704 5700 5699 5700 5701 5702 5701 5700 5699 5699 5698 5698 5697 5696 5694 5692 5691 5689 5687 5685 5682 5681 5679
5733 5732 5731 5730 5729 5729 5728 5727 5725 5723 5722 5720 5718 5716 5715 5714 5713 5711 5710 5708 5706 5701 5696 5696 5695 5695 5695 5694 5693 5692 5692 5691 5689 5688 5687 5685 5683 5681 5679 5677 5675 5673 5671
5731 5729 5728 5727 5726 5725 5724 5723 5722 5721 5719 5717 5715 5714 5712 5711 5709 5708 5706 5704 5702 5699 5694 5692 5691 5690 5688 5687 5686 5685 5684 5682 5681 5679 5678 5677 5675 5672 5670 5668 5666 5664 5662
5729 5727 5725 5724 5723 5721 5720 5719 5718 5717 5715 5713 5711 5710 5708 5707 5705 5703 5701 5699 5697 5694 5691 5686 5684 5683 5681 5679 5678 5677 5675 5673 5671 5669 5668 5666 5665 5663 5661 5658 5656 5654 5652
5726 5724 5723 5721 5719 5718 5716 5715 5714 5712 5710 5708 5706 5704 5703 5701 5698 5697 5695 5693 5691 5689 5685 5681 5678 5675 5672 5670 5669 5667 5665 5663 5661 5658 5656 5654 5652 5651 5649 5647 5645 5643 5641
5722 5720 5718 5716 5715 5713 5712 5710 5709 5707 5705 5703 5701 5698 5696 5694 5692 5690 5688 5686 5684 5680 5677 5674 5670 5667 5663 5661 5659 5656 5654 5652 5649 5647 5644 5642 5640 5638 5636 5634 5632 5630 5627
5717 5715 5713 5711 5709 5708 5706 5705 5703 5701 5698 5696 5693 5691 5689 5687 5685 5683 5680 5677 5675 5671 5668 5664 5661 5657 5654 5650 5648 5646 5644 5641 5638 5635 5633 5630 5628 5625 5623 5620 5618 5616 5613
5712 5710 5707 5705 5702 5701 5699 5698 5696 5693 5691 5688 5685 5682 5680 5678 5675 5673 5671 5668 5666 5662 5659 5655 5651 5648 5644 5642 5639 5638 5634 5632 5628 5623 5621 5618 5615 5612 5609 5607 5604 5602 5599
5708 5705 5702 5698 5695 5692 5691 5690 5688 5686 5683 5679 5676 5674 5671 5668 5665 5663 5660 5658 5655 5652 5650 5647 5643 5639 5636 5634 5631 5629 5625 5622 5617 5612 5610 5606 5602 5599 5595 5593 5590 5588 5585
5701 5697 5694 5691 5688 5685 5683 5682 5680 5678 5674 5670 5667 5664 5661 5658 5656 5654 5652 5649 5645 5642 5640 5637 5634 5631 5629 5626 5623 5620 5616 5611 5606 5602 5599 5595 5590 5586 5583 5579 5576 5574 5571
5693 5689 5686 5683 5680 5677 5676 5674 5672 5669 5665 5661 5658 5655 5652 5649 5647 5645 5643 5639 5636 5632 5630 5627 5625 5621 5619 5616 5614 5610 5606 5603 5597 5591 5586 5583 5578 5574 5570 5567 5564 5561 5558
5686 5682 5678 5674 5672 5669 5667 5666 5664 5661 5657 5652 5649 5645 5643 5640 5637 5635 5632 5630 5626 5622 5619 5617 5614 5611 5608 5605 5603 5599 5596 5592 5587 5582 5575 5571 5567 5563 5560 5555 5552 5549 5546